Tracking 28790 objects as of 19-Apr-2024
HD Live streaming from Space Station
objects crossing your sky now

ARIANE 2 DEB

Track ARIANE 2 DEB now!


NORAD ID: 28564
Int'l Code: 1989-006AF
Perigee: 885.4 km
Apogee: 35,615.9 km
Inclination: 8.9 °
Period: 640.8 minutes
Semi major axis: 24621 km
RCS: 0.1336 m2 (medium)
Launch date: January 27, 1989
Source: France (FR)
Launch site: FRENCH GUIANA (FRGUI)

Note: This is SATELLITE DEBRIS
Your satellite tracking list
Your tracking list is empty




NASA's NSSDC Master Catalog

Two Line Element Set (TLE):
1 28564U 89006AF  24087.30935875 -.00000656  00000-0 -39032-1 0  9996
2 28564   8.8605 329.2255 7052839 313.2763 329.2783  2.24712733  3650
Source of the keplerian elements: AFSPC